TimeEDT,TemperatureF,Dew PointF,Humidity,Sea Level PressureIn,VisibilityMPH,Wind Direction,Wind SpeedMPH,Gust SpeedMPH,PrecipitationIn,Events,Conditions,WindDirDegrees,DateUTC
12:54 AM,81.0,70.0,69,29.93,10.0,West,5.8,-,N/A,,Partly Cloudy,280,2013-06-26 04:54:00
1:54 AM,77.0,64.9,66,29.88,10.0,SW,5.8,-,N/A,,Clear,230,2013-06-26 05:54:00
2:54 AM,75.9,64.0,67,29.90,10.0,WSW,4.6,-,N/A,,Clear,240,2013-06-26 06:54:00
3:54 AM,75.0,63.0,66,29.89,10.0,SW,3.5,-,N/A,,Clear,230,2013-06-26 07:54:00
4:54 AM,72.0,64.0,76,29.89,10.0,SW,5.8,-,N/A,,Clear,220,2013-06-26 08:54:00
5:54 AM,73.0,64.0,73,29.90,10.0,Calm,Calm,-,N/A,,Clear,0,2013-06-26 09:54:00
6:54 AM,73.9,64.9,73,29.92,10.0,NNW,3.5,-,N/A,,Clear,340,2013-06-26 10:54:00
7:54 AM,77.0,66.9,71,29.93,10.0,NW,3.5,-,N/A,,Scattered Clouds,310,2013-06-26 11:54:00
8:10 AM,77.0,66.2,69,29.93,10.0,Calm,Calm,-,N/A,,Mostly Cloudy,0,2013-06-26 12:10:00
8:31 AM,78.8,68.0,69,29.93,10.0,WNW,3.5,-,N/A,,Scattered Clouds,300,2013-06-26 12:31:00
8:54 AM,80.1,69.1,69,29.93,10.0,WNW,3.5,-,N/A,,Clear,300,2013-06-26 12:54:00
9:54 AM,82.0,71.1,69,29.92,10.0,Variable,5.8,-,N/A,,Clear,0,2013-06-26 13:54:00
10:54 AM,84.9,73.0,67,29.90,9.0,SW,6.9,-,N/A,,Partly Cloudy,230,2013-06-26 14:54:00
11:20 AM,84.2,73.4,70,29.91,9.0,SSW,6.9,-,N/A,,Mostly Cloudy,200,2013-06-26 15:20:00
11:54 AM,84.9,73.0,67,29.91,9.0,SW,8.1,-,N/A,,Mostly Cloudy,220,2013-06-26 15:54:00
12:33 PM,87.8,73.4,62,29.91,9.0,SSW,10.4,-,N/A,,Scattered Clouds,210,2013-06-26 16:33:00
12:54 PM,88.0,73.0,61,29.90,10.0,WSW,10.4,-,N/A,,Partly Cloudy,240,2013-06-26 16:54:00
1:54 PM,87.1,73.0,63,29.88,10.0,SSW,6.9,-,N/A,,Partly Cloudy,210,2013-06-26 17:54:00
2:54 PM,90.0,72.0,55,29.87,10.0,SW,9.2,-,N/A,,Partly Cloudy,220,2013-06-26 18:54:00
3:54 PM,91.0,71.1,52,29.85,10.0,WSW,11.5,-,N/A,,Clear,240,2013-06-26 19:54:00
4:54 PM,91.0,72.0,53,29.83,10.0,WSW,10.4,-,N/A,,Clear,240,2013-06-26 20:54:00
5:54 PM,89.1,72.0,57,29.82,10.0,SSW,9.2,-,N/A,,Clear,210,2013-06-26 21:54:00
6:54 PM,87.1,72.0,61,29.82,10.0,SSW,11.5,-,N/A,,Clear,200,2013-06-26 22:54:00
7:54 PM,84.9,73.0,67,29.84,10.0,SW,6.9,-,N/A,,Clear,220,2013-06-26 23:54:00
8:54 PM,82.9,73.0,72,29.83,9.0,South,4.6,-,N/A,,Clear,190,2013-06-27 00:54:00
9:54 PM,82.0,73.0,74,29.84,10.0,Calm,Calm,-,N/A,,Partly Cloudy,0,2013-06-27 01:54:00
10:12 PM,82.4,73.4,74,29.83,10.0,West,4.6,-,N/A,,Mostly Cloudy,270,2013-06-27 02:12:00
10:35 PM,80.6,73.4,79,29.83,10.0,WSW,5.8,-,0.00,,Scattered Clouds,240,2013-06-27 02:35:00
10:54 PM,80.1,71.1,74,29.83,10.0,Calm,Calm,-,0.00,,Clear,0,2013-06-27 02:54:00
11:54 PM,79.0,73.0,82,29.83,10.0,Calm,Calm,-,N/A,,Scattered Clouds,0,2013-06-27 03:54:00